Weather History for KCRE - July, 2013

Change the Weather History Date:

Monday, July 29, 2013

  Actual Average Record
Temperature  
Mean Temperature 79 °F 80 °F  
Max Temperature 86 °F 87 °F 96 °F (1999)
Min Temperature 72 °F 73 °F 62 °F (1954)
Degree Days  
Heating Degree Days 0 0  
Month to date heating degree days 0 0  
Since 1 June heating degree days 0 0  
Since 1 July heating degree days 0 0  
Cooling Degree Days 14 15  
Month to date cooling degree days 443 447  
Year to date cooling degree days 1010 1016  
Since 1 June cooling degree days 830 804  
Growing Degree Days 28 (Base 50)    
Moisture  
Dew Point 74 °F    
Average Humidity 85    
Maximum Humidity 100    
Minimum Humidity 70    
Precipitation  
Precipitation 1.13 in 0.18 in 2.66 in (2010)
Month to date precipitation 6.63 5.51  
Year to date precipitation 36.52 27.55  
Sea Level Pressure  
Sea Level Pressure 30.08 in    
Wind  
Wind Speed 6 mph (SW)    
Max Wind Speed 21 mph    
Max Gust Speed 26 mph    
Visibility 6 miles    
Events Rain    
T = Trace of Precipitation, MM = Missing Value Source: NWS Daily Summary

Daily Weather History Graph

Daily Weather History Graph

Search for Another Location

Airport or City:

Trip Planner

Search our weather history database for the weather conditions in past years. The results will help you decide how hot, cold, wet, or windy it might be!

Date:

Astronomy

Jul. 29, 2013 Rise Set
Actual Time 6:24 AM EDT 8:17 PM EDT
Civil Twilight 5:57 AM EDT 8:44 PM EDT
Nautical Twilight 5:23 AM EDT 9:18 PM EDT
Astronomical Twilight 4:48 AM EDT 9:53 PM EDT
Moon 12:01 AM EDT (7/29) 1:40 PM EDT (7/29)
Length of Visible Light 14h 47m
Length of Day
13h 52m
Waning Gibbous, 51% of the Moon is Illuminated
Jul 29
Waning Gibbous
Jul 29
Last Quarter
Aug 6
New
Aug 14
First Quarter
Aug 20
Full

Hourly Weather History & Observations

Time (EDT) Temp. Heat Index Dew Point Humidity Pressure Visibility Wind Dir Wind Speed Gust Speed Precip Events Conditions
12:42 AM 80.6 °F 86.2 °F 75.2 °F 84% 30.03 in 10.0 mi SSW 12.7 mph - N/A   Mostly Cloudy
12:53 AM 80.1 °F 85.4 °F 75.9 °F 87% 30.03 in 10.0 mi SSW 12.7 mph - N/A   Mostly Cloudy
1:29 AM 80.6 °F 86.2 °F 75.2 °F 84% 30.03 in 10.0 mi SSW 13.8 mph - N/A   Scattered Clouds
1:53 AM 80.1 °F 85.1 °F 75.0 °F 85% 30.04 in 10.0 mi SW 12.7 mph - N/A   Partly Cloudy
2:06 AM 80.6 °F 86.2 °F 75.2 °F 84% 30.03 in 10.0 mi SW 13.8 mph - N/A   Mostly Cloudy
2:44 AM 78.8 °F - 75.2 °F 89% 30.03 in 10.0 mi SW 8.1 mph - N/A   Scattered Clouds
2:53 AM 79.0 °F - 75.9 °F 90% 30.03 in 10.0 mi WSW 4.6 mph - N/A   Partly Cloudy
3:53 AM 78.1 °F - 75.0 °F 90% 30.02 in 9.0 mi West 3.5 mph - N/A   Clear
4:53 AM 77.0 °F - 75.0 °F 94% 30.02 in 7.0 mi Calm Calm - N/A   Clear
5:53 AM 75.9 °F - 75.0 °F 97% 30.05 in 5.0 mi Calm Calm - N/A   Clear
6:53 AM 75.9 °F - 75.0 °F 97% 30.06 in 4.0 mi Calm Calm - N/A   Clear
7:53 AM 78.1 °F - 75.9 °F 93% 30.06 in 6.0 mi WSW 4.6 mph - N/A   Clear
8:53 AM 80.1 °F 85.1 °F 75.0 °F 85% 30.08 in 8.0 mi West 4.6 mph - N/A   Scattered Clouds
9:53 AM 84.0 °F 91.2 °F 73.9 °F 72% 30.09 in 10.0 mi WSW 5.8 mph - N/A   Clear
10:53 AM 84.9 °F 94.1 °F 75.9 °F 74% 30.10 in 10.0 mi South 8.1 mph - N/A   Partly Cloudy
11:53 AM 84.9 °F 94.1 °F 75.9 °F 74% 30.10 in 8.0 mi South 11.5 mph - N/A   Scattered Clouds
12:53 PM 82.0 °F 90.2 °F 77.0 °F 85% 30.09 in 3.0 mi SSW 12.7 mph - 0.02 in Rain Rain
1:53 PM 84.0 °F 94.8 °F 78.1 °F 82% 30.06 in 9.0 mi SSW 16.1 mph - 0.01 in   Scattered Clouds
2:00 PM 84.2 °F 96.1 °F 78.8 °F 84% 30.06 in 9.0 mi SSW 18.4 mph 21.9 mph N/A   Scattered Clouds
2:29 PM 80.6 °F 88.1 °F 78.8 °F 94% 30.07 in 1.2 mi SW 12.7 mph 23.0 mph 0.03 in Rain Rain
2:34 PM 80.6 °F 88.1 °F 78.8 °F 94% 30.07 in 3.0 mi SSW 10.4 mph - 0.04 in Rain Light Rain
2:53 PM 80.1 °F 85.8 °F 77.0 °F 90% 30.09 in 4.0 mi WNW 9.2 mph 16.1 mph 0.06 in Rain Light Rain
2:58 PM 78.8 °F - 75.2 °F 89% 30.09 in 2.0 mi WNW 5.8 mph 16.1 mph 0.04 in Rain Rain
3:03 PM 78.8 °F - 75.2 °F 89% 30.09 in 1.0 mi West 5.8 mph - 0.11 in Rain Heavy Rain
3:05 PM 77.0 °F - 75.2 °F 94% 30.09 in 0.8 mi Variable 6.9 mph - 0.20 in Rain Heavy Rain
3:32 PM 73.4 °F - 71.6 °F 94% 30.09 in 1.0 mi Calm Calm - 0.55 in Rain Heavy Rain
3:46 PM 73.4 °F - 69.8 °F 88% 30.09 in 2.0 mi WSW 10.4 mph 17.3 mph 0.62 in Rain Rain
3:53 PM 73.9 °F - 69.1 °F 85% 30.09 in 1.5 mi SSW 11.5 mph - 0.69 in Rain Heavy Rain
4:01 PM 75.2 °F - 69.8 °F 83% 30.09 in 3.0 mi SW 17.3 mph 23.0 mph 0.03 in Rain Rain
4:07 PM 73.4 °F - 69.8 °F 88% 30.09 in 1.8 mi SW 20.7 mph 25.3 mph 0.13 in Rain Heavy Rain
4:19 PM 73.4 °F - 68.0 °F 83% 30.08 in 3.0 mi South 8.1 mph 18.4 mph 0.20 in Rain Light Rain
4:53 PM 75.9 °F - 73.0 °F 91% 30.07 in 9.0 mi SSE 3.5 mph - 0.24 in Rain Light Rain
5:53 PM 73.9 °F - 71.1 °F 91% 30.12 in 5.0 mi WSW 10.4 mph - 0.01 in Rain Rain
6:53 PM 72.0 °F - 70.0 °F 93% 30.11 in 9.0 mi WSW 6.9 mph - 0.09 in Rain Light Rain
7:53 PM 73.9 °F - 72.0 °F 93% 30.15 in 7.0 mi SW 4.6 mph - 0.01 in Rain Light Rain
8:53 PM 75.0 °F - 71.1 °F 87% 30.14 in 10.0 mi Calm Calm - 0.00 in   Partly Cloudy
9:53 PM 75.9 °F - 72.0 °F 87% 30.14 in 10.0 mi SW 5.8 mph - N/A   Clear
10:53 PM 73.0 °F - 73.0 °F 100% 30.14 in 6.0 mi Calm Calm - N/A   Clear
11:53 PM 73.0 °F - 72.0 °F 96% 30.15 in 10.0 mi Calm Calm - N/A   Clear